This demonstration page uses our WeatherBlox Daily Observations layout. Learn more.

Left ArrowRight Arrow

39.08367, -84.50855

Hourly Observations for September 3, 2015

Temp ( °F °C ) Dew Point ( °F °C ) Humidity (%) Winds ( mph kmh ) Pressure ( in mb ) Visibility ( mi km ) Precip ( " mm )
12:53 am 00:53 Clear with Mist and Fog 68 20 68 20 100 100 NE 3 6 30.02 1017 4 6 0.00 0.00
1:53 am 01:53 Clear with Mist and Fog 69 20.6 68 20 96 96 Calm 30.01 1016 4 6 0.00 0.00
1:57 am 01:57 Clear with Mist and Fog 68 20 68 20 100 100 Calm 30.00 1016 1 2 0.00 0.00
2:00 am 02:00 Mostly Cloudy with Fog 66 19 66 19 100 100 Calm 30.00 1016 1 1 0.00 0.00
2:10 am 02:10 Clear with Mist and Fog 66 19 66 19 100 100 Calm 30.00 1016 2 3 0.00 0.00
2:18 am 02:18 Clear with Mist and Fog 66 19 66 19 100 100 Calm 30.00 1016 4 6 0.00 0.00
2:50 am 02:50 Clear with Mist and Fog 68 20 68 20 100 100 S 3 6 29.97 1015 2 3 0.00 0.00
2:53 am 02:53 Clear with Mist and Fog 67 19.4 67 19.4 100 100 S 3 6 29.99 1016 1 2 0.00 0.00
3:11 am 03:11 Mostly Cloudy with Mist and Fog 67 19.4 67 19.4 100 100 Calm 29.97 1015 1 1 0.00 0.00
3:24 am 03:24 Clear with Mist and Fog 66 19 66 19 100 100 Calm 29.97 1015 2 3 0.00 0.00
3:33 am 03:33 Clear with Mist and Fog 68 20 68 20 100 100 Calm 29.97 1015 3 5 0.00 0.00
3:48 am 03:48 Clear with Mist and Fog 66 19 66 19 100 100 NE 3 6 29.97 1015 2 3 0.00 0.00
3:53 am 03:53 Clear with Mist and Fog 67 19.4 67 19.4 100 100 NE 3 6 30.00 1016 1 2 0.00 0.00
4:05 am 04:05 Clear with Mist and Fog 67 19.4 67 19.4 100 100 NNE 3 6 30.00 1016 3 4 0.00 0.00
4:12 am 04:12 Clear with Mist and Fog 67 19.4 67 19.4 100 100 NNE 3 6 30.00 1016 4 6 0.00 0.00
4:53 am 04:53 Clear with Mist and Fog 66 18.9 66 18.9 100 100 Calm 30.00 1016 3 5 0.00 0.00
5:10 am 05:10 Clear with Mist and Fog 64 18 64 18 100 100 Calm 30.00 1016 2 3 0.00 0.00
5:15 am 05:15 Mostly Cloudy with Fog 65 18.3 65 18.3 100 100 Calm 30.00 1016 1 1 0.00 0.00
5:18 am 05:18 Mostly Cloudy with Fog 64 18 64 18 100 100 Calm 30.00 1016 0 0 0.00 0.00
5:21 am 05:21 Mostly Cloudy with Fog 65 18.3 65 18.3 100 100 Calm 30.00 1016 1 1 0.00 0.00
5:26 am 05:26 Mostly Cloudy with Mist and Fog 64 18 64 18 100 100 Calm 30.00 1016 1 2 0.00 0.00
5:53 am 05:53 Mostly Cloudy with Mist and Fog 66 18.9 66 18.9 100 100 Calm 30.01 1016 3 5 0.00 0.00
6:05 am 06:05 Mostly Clear with Mist and Fog 67 19.4 67 19.4 100 100 Calm 30.00 1016 2 3 0.00 0.00
6:10 am 06:10 Mostly Clear with Mist and Fog 66 19 66 19 100 100 Calm 30.00 1016 1 1 0.00 0.00
6:25 am 06:25 Mostly Cloudy with Fog 65 18.3 65 18.3 100 100 Calm 30.00 1016 0 0 0.00 0.00
6:40 am 06:40 Mostly Cloudy with Mist and Fog 64 18 64 18 100 100 Calm 30.00 1016 1 2 0.00 0.00
6:43 am 06:43 Mostly Clear with Mist and Fog 65 18.3 65 18.3 100 100 Calm 30.00 1016 2 3 0.00 0.00
6:53 am 06:53 Mostly Clear with Mist and Fog 65 18.3 65 18.3 100 100 Calm 30.02 1017 4 6 0.00 0.00
7:53 am 07:53 Sunny with Mist and Fog 67 19.4 66 18.9 97 97 Calm 30.04 1017 4 6 0.00 0.00
8:00 am 08:00 Sunny with Mist and Fog 66 19 66 19 100 100 Calm 30.03 1017 3 4 0.00 0.00
8:11 am 08:11 Sunny with Mist and Fog 68 20 67 19.4 96 96 Calm 30.03 1017 4 6 0.00 0.00
8:53 am 08:53 Sunny 70 21.1 69 20.6 97 97 Calm 30.04 1017 8 13 0.00 0.00
9:53 am 09:53 Sunny 75 23.9 71 21.7 88 88 Calm 30.03 1017 10 16 0.00 0.00
10:53 am 10:53 Sunny 82 27.8 71 21.7 69 69 SW 3 6 30.02 1017 10 16 0.00 0.00
11:53 am 11:53 Sunny 86 30 69 20.6 57 57 W 8 13 30.01 1016 10 16 0.00 0.00
12:53 pm 12:53 Partly Cloudy 88 31.1 68 20 52 52 W 7 11 30.00 1016 10 16 0.00 0.00
1:53 pm 13:53 Partly Cloudy 89 31.7 67 19.4 48 48 WNW 6 9 29.98 1015 10 16 0.00 0.00
2:53 pm 14:53 Partly Cloudy 90 32.2 67 19.4 47 47 VRB 3 6 29.96 1015 10 16 0.00 0.00
3:53 pm 15:53 Partly Cloudy 90 32.2 65 18.3 44 44 Calm 29.94 1014 10 16 0.00 0.00
4:53 pm 16:53 Partly Cloudy 89 31.7 65 18.3 45 45 W 6 9 29.93 1013 10 16 0.00 0.00
5:53 pm 17:53 Mostly Sunny 88 31.1 66 18.9 48 48 VRB 3 6 29.91 1013 10 16 0.00 0.00
6:53 pm 18:53 Mostly Sunny 88 31.1 65 18.3 46 46 WSW 5 7 29.91 1013 10 16 0.00 0.00
7:53 pm 19:53 Mostly Sunny 80 26.7 71 21.7 74 74 Calm 29.92 1013 10 16 0.00 0.00
8:53 pm 20:53 Clear 75 23.9 69 20.6 82 82 Calm 29.93 1014 10 16 0.00 0.00
9:53 pm 21:53 Clear 72 22.2 69 20.6 91 91 Calm 29.95 1014 9 14 0.00 0.00
10:53 pm 22:53 Clear 71 21.7 68 20 90 90 Calm 29.96 1015 8 13 0.00 0.00
11:53 pm 23:53 Clear 69 20.6 68 20 96 96 Calm 29.96 1015 7 11 0.00 0.00

Powered by AerisWeather